Regional Weather Roundup
Issued by NWS Little Rock, AR

Home | Current Version | Previous Version | Graphics & Text | Print | Product List | Glossary On
Versions: 1 2 3 4 5 6 7 8 9 10 11 12 13 14 15 16 17 18 19 20 21 22 23 24 25 26 27
000
ASUS44 KLZK 200505
RWRLZK

WEATHER ROUNDUP FOR ARKANSAS
NATIONAL WEATHER SERVICE LITTLE ROCK AR
1200 AM CDT SUN APR 20 2014

NOTE: "FAIR" INDICATES FEW OR NO CLOUDS BELOW 12,000 FEET WITH NO
SIGNIFICANT WEATHER AND/OR OBSTRUCTIONS TO VISIBILITY.

ARZ001-003-010-029-200600-
NORTHWEST ARKANSAS

CITY           SKY/WX    TMP DP  RH WIND       PRES   REMARKS
FAYETTEVILLE   CLEAR     51  49  92 CALM      30.16R
FORT SMITH     PTCLDY    64  51  62 S5        30.13S
HARRISON       CLEAR     62  47  57 S3        30.16S
BENTONVILLE    PTCLDY    57  46  67 SE6       30.16R
ROGERS         PTCLDY    62  47  57 SE8       30.16R
SILOAM SPGS    CLEAR     61  45  55 SE5       30.15S
HIGHFILL       PTCLDY    58  47  66 SE6       30.14R
$$

ARZ004-005-016-200600-
NORTH CENTRAL ARKANSAS

CITY           SKY/WX    TMP DP  RH WIND       PRES   REMARKS
BATESVILLE     CLEAR     55  46  71 CALM      30.15F
FLIPPIN        CLEAR     61  43  51 CALM      30.16S
MTN HOME       CLEAR     61  43  51 SE5       30.15S
$$

ARZ040-041-200600-
WEST CENTRAL ARKANSAS

CITY           SKY/WX    TMP DP  RH WIND       PRES   REMARKS
MENA           CLEAR     54  54 100 CALM      30.16F
MOUNT IDA      CLEAR     54  52  93 CALM      30.14R
$$

ARZ009-017-025-026-028-200600-
NORTHEAST ARKANSAS

CITY           SKY/WX    TMP DP  RH WIND       PRES   REMARKS
CORNING        FAIR      57  50  77 NE3       30.16F
JONESBORO      CLEAR     54  46  74 CALM      30.16S
NEWPORT        CLEAR     59  51  74 CALM      30.17S
WALNUT RIDGE   CLEAR     57  48  72 NE3       30.16S
BLYTHEVILLE    CLEAR     57  50  77 NE3       30.16S
$$

ARZ022-023-033-042-044-200600-
CENTRAL ARKANSAS

CITY           SKY/WX    TMP DP  RH WIND       PRES   REMARKS
LITTLE ROCK    PTCLDY    61  52  72 CALM      30.15F
N LITTLE ROCK  PTCLDY    65  52  62 SE6       30.15F
JACKSONVILLE   CLEAR     54  51  90 CALM      30.15F
SEARCY         CLEAR     54  49  83 CALM      30.16F
HOT SPRINGS    CLEAR     58  51  78 CALM      30.16S
RUSSELLVILLE   PTCLDY    58  51  78 CALM      30.14R
CLINTON        FAIR      52  52 100 CALM      30.17S
$$

ARZ036-200600-
EAST ARKANSAS

CITY           SKY/WX    TMP DP  RH WIND       PRES   REMARKS
WEST MEMPHIS   HAZE      58  50  75 CALM      30.15R VSB 1
$$

ARZ050-053-066-070-073-200600-
SOUTHWEST ARKANSAS

CITY           SKY/WX    TMP DP  RH WIND       PRES   REMARKS
ARKADELPHIA    FAIR      58  58 100 CALM      30.16R
CAMDEN         CLEAR     55  52  88 MISG      30.15S
TEXARKANA      CLEAR     59  52  77 CALM      30.14S
EL DORADO      CLEAR     55  53  93 CALM      30.15S
DE QUEEN       PTCLDY    54  52  93 CALM      30.13S
$$

ARZ056-057-069-200600-
SOUTHEAST ARKANSAS

CITY           SKY/WX    TMP DP  RH WIND       PRES   REMARKS
PINE BLUFF     CLEAR     59  54  83 CALM      30.15F
STUTTGART      CLEAR     63  50  63 E3        30.16F
MONTICELLO     CLEAR     56  52  86 CALM      30.14F

$$





USA.gov is the U.S. government's official web portal to all federal, state and local government web resources and services.